Weather in Verkhovino

Russia / Sverdlovsk Oblast     57°07′21″N   64°54′09″E
temp.,
°C
wind,
m/s
gust,
m/s
humid.,
%
clouds,
%
prec.,
mm/h
press.,
hPa
HPBL,
m
25 july, sun
sun2523:00+15ese2295100 0.0 100619
02:00+14n1196100 0.0 100611
05:00+14nw2395100 0.0 100667
08:00+18nw24746 0.0 1007455
11:00+23nnw45495 0.0 10071283
14:00+20nw675999 0.7 10101307
17:00+19nnw47495 0.7 10121173
20:00+17nw510400 0.0 1013510
26 july, mon
mon2623:00+11wnw34565 0.0 101563
02:00+9nw3107253 0.0 1016195
05:00+8nw28765 0.0 1017158
08:00+14wnw465541 0.0 1017533
11:00+18nw5642100 0.0 10162100
14:00+18wnw4641100 0.0 10161947
17:00+18wnw4642100 0.0 10152157
20:00+14wsw266037 0.0 1015177
27 july, tue
tue2723:00+12wsw256699 0.0 1015101
02:00+11wsw37719 0.0 1014140
05:00+9wsw25845 0.0 1013105
08:00+15wsw46625 0.0 1012409
11:00+19wsw574826 0.0 10101104
14:00+15w51077100 0.3 1010696
17:00+15w478229 0.7 1009700
20:00+16wsw247712 0.1 1008128
28 july, wed
wed2823:00+12wsw2591100 0.1 100897
02:00+9nw289065 0.0 1008156
05:00+10wnw387872 0.0 1008245
08:00+13wnw47605 0.0 1009614
11:00+16wnw584399 0.0 10081969
14:00+15wnw6759100 0.1 10081535
17:00+13wnw377012 0.4 1008529
20:00+12nw39665 0.3 1009670
29 july, thu
thu2923:00+7wnw11865 0.3 101110
02:00+7wsw2279100 0.0 101023
05:00+8wsw267577 0.0 1010180
08:00+12w355999 0.0 1010453
11:00+9wsw3685100 0.2 1011344
14:00+17w255095 0.1 10091560
17:00+18w375395 0.1 10081647
20:00+16s116963 0.0 100817